星链-5785 (STARLINK-5785 )

导读 | 豆包AI

STARLINK-5785是美国太空探索技术公司(SpaceX)星链(Starlink)互联网卫星星座中的一颗卫星,于2023年3月24日发射升空。星链计划旨在构建全球卫星互联网系统,该卫星加入星座后,为全球覆盖服务能力的拓展提供支撑,助力实现对偏远地区等的网络覆盖补充。

基本信息
目录编号:
56031
目录名称:
STARLINK-5785
国际标识:
2023-042AX
轨道中心:
EARTH
卫星名称:
星链-5785
卫星全名:
星链-5785 (STARLINK-5785 )
卫星状态:
在轨 (已飞行1087 天)
发射日期:
2023-03-24 UTC
国别 :
美国 (US)
星等 :
--
轨道信息
数据来源 国际轨道数据
星历时间: 2026-03-15T14:00:01+0800
13小时前
查看轨道信息
半长轴: 6908.467km
偏心率: 0.0000987
轨道倾角: 43.001°
近地点辐角 233.855°
升交点赤经 12.476°
平近点角 48.343°
近地点: 529.648km
远地点: 531.012km
周期: 95.243分钟
每日圈数: 15.11925
详细信息
固有亮度:
5
最大亮度:
2.5
卫星平台:
Starlink v1.5
覆盖范围:
全球
运营商:
太空探索技术公司
运营商所在国:
美国
制造商(研发单位):
太空探索技术公司
制造商所在国:
美国
使用方式:
暂无
卫星简介
星链(Starlink)计划是由太空探索技术公司(SpaceX)提出的一个巨型低轨卫星互联网星座项目,计划在2019年至2024年间在太空搭建由约1.2万颗卫星组成的“星链”网络,其中1584颗将部署在地球上空550千米处的近地轨道,并从2020年开始工作。该卫星仍在工作。
2D轨道图
3D轨道图
轨道高度分析图
轨道倾角分析图
轨道综合分析图
查看轨道综合分析图